Monroe, Wisconsin, United States (53566)
Lat: 42.60N, Lon: 89.64W
Wx Zone: WIZ068
Local Info
Past Weather Observations for Today

NOTE: This archive is for the closest National Weather Service station to Monroe. Information may differ from the station used for current weather conditions.

Click here for Long-term Archive

Time Weather Temperature Dewpoint Humidity Pressure Winds Precip Visibility
11:35
Overcast
46°F / 8°C 43°F / 6°C 87% 30.06 in
(1018 mb)
NE 9.2 mph
(NE 15 kph)
- 10SM
11:15
Overcast
45°F / 7°C 41°F / 5°C 87% 30.06 in
(1018 mb)
ENE 4.6 mph
(ENE 7 kph)
- 10SM
10:55
Overcast
45°F / 7°C 41°F / 5°C 87% 30.06 in
(1018 mb)
E 8.1 mph
(E 13 kph)
- 10SM
10:35
Overcast
45°F / 7°C 41°F / 5°C 87% 30.06 in
(1018 mb)
ENE 6.9 mph
(ENE 11 kph)
- 10SM
10:15
Overcast
45°F / 7°C 41°F / 5°C 87% 30.09 in
(1019 mb)
ENE 5.8 mph
(ENE 9 kph)
- 10SM
09:55
Overcast
45°F / 7°C 41°F / 5°C 87% 30.06 in
(1018 mb)
NE 6.9 mph
(NE 11 kph)
- 10SM
09:35
Overcast
43°F / 6°C 41°F / 5°C 93% 30.09 in
(1019 mb)
NE 9.2 mph
(NE 15 kph)
- 10SM
09:15
Overcast
43°F / 6°C 41°F / 5°C 93% 30.09 in
(1019 mb)
N 5.8 mph
(N 9 kph)
- 10SM
08:55
Overcast
43°F / 6°C 41°F / 5°C 93% 30.09 in
(1019 mb)
NE 8.1 mph
(NE 13 kph)
- 10SM
08:35
Overcast
43°F / 6°C 41°F / 5°C 93% 30.09 in
(1019 mb)
NE 6.9 mph
(NE 11 kph)
- 7SM
08:15
Overcast
43°F / 6°C 41°F / 5°C 93% 30.09 in
(1019 mb)
NE 9.2 mph
(NE 15 kph)
- 7SM
07:55
Overcast
43°F / 6°C 41°F / 5°C 93% 30.09 in
(1019 mb)
NE 9.2 mph
(NE 15 kph)
- 7SM
07:35
Overcast
43°F / 6°C 41°F / 5°C 93% 30.09 in
(1019 mb)
NE 11.5 mph
(NE 19 kph)
- 7SM
07:15
Overcast
43°F / 6°C 41°F / 5°C 93% 30.06 in
(1018 mb)
NE 12.7 mph
(NE 20 kph)
- 7SM
06:55
Overcast
43°F / 6°C 41°F / 5°C 93% 30.06 in
(1018 mb)
NE 13.8 mph
(NE 22 kph)
- 7SM
06:35
Overcast
43°F / 6°C 41°F / 5°C 93% 30.09 in
(1019 mb)
NE 9.2 mph
(NE 15 kph)
- 7SM
06:15
Overcast
43°F / 6°C 41°F / 5°C 93% 30.06 in
(1018 mb)
NE 9.2 mph
(NE 15 kph)
- 7SM
05:55
Overcast
43°F / 6°C 43°F / 6°C 100% 30.06 in
(1018 mb)
NE 10.4 mph
(NE 17 kph)
- 10SM
05:35
Overcast
45°F / 7°C 43°F / 6°C 93% 30.06 in
(1018 mb)
NE 6.9 mph
(NE 11 kph)
- 10SM
05:15
Overcast
45°F / 7°C 43°F / 6°C 93% 30.06 in
(1018 mb)
NNE 12.7 mph
(NNE 20 kph)
- 10SM
04:55
Overcast
45°F / 7°C 43°F / 6°C 93% 30.06 in
(1018 mb)
NE 10.4 mph
(NE 17 kph)
- 10SM
04:35
Overcast
45°F / 7°C 43°F / 6°C 93% 30.06 in
(1018 mb)
NE 9.2 mph
(NE 15 kph)
- 10SM
04:15
Overcast
45°F / 7°C 43°F / 6°C 93% 30.06 in
(1018 mb)
NNE 11.5 mph
(NNE 19 kph)
- 10SM
03:55
Overcast
45°F / 7°C 45°F / 7°C 100% 30.06 in
(1018 mb)
NE 8.1 mph
(NE 13 kph)
- 10SM
03:35
Overcast
45°F / 7°C 45°F / 7°C 100% 30.06 in
(1018 mb)
NE 8.1 mph
(NE 13 kph)
- 10SM
03:15
Overcast
46°F / 8°C 45°F / 7°C 93% 30.06 in
(1018 mb)
NE 10.4 mph
(NE 17 kph)
- 10SM
02:55
Overcast
46°F / 8°C 45°F / 7°C 93% 30.06 in
(1018 mb)
NE 6.9 mph
(NE 11 kph)
- 10SM
02:35
Overcast
46°F / 8°C 45°F / 7°C 93% 30.06 in
(1018 mb)
NE 11.5 mph
(NE 19 kph)
- 10SM
02:10
Overcast
46°F / 8°C 45°F / 7°C 93% 30.06 in
(1018 mb)
NE 10.4 mph
(NE 17 kph)
- 10SM
01:55
Overcast
46°F / 8°C 46°F / 8°C 100% 30.06 in
(1018 mb)
NE 16.1 mph
(NE 26 kph)
- 7SM
01:35
Overcast
48°F / 9°C 46°F / 8°C 94% 30.06 in
(1018 mb)
NE 15 mph
(NE 24 kph)
- 7SM
01:15
Overcast
48°F / 9°C 46°F / 8°C 94% 30.06 in
(1018 mb)
NE 12.7 mph
(NE 20 kph)
- 10SM
00:55
Overcast
50°F / 10°C 48°F / 9°C 94% 30.06 in
(1018 mb)
NE 11.5 mph
(NE 19 kph)
- 7SM
00:35
Overcast
50°F / 10°C 48°F / 9°C 94% 30.06 in
(1018 mb)
NNE 10.4 mph
(NNE 17 kph)
- 7SM
00:10
Overcast
50°F / 10°C 48°F / 9°C 94% 30.04 in
(1017 mb)
NNE 12.7 mph
(NNE 20 kph)
- 7SM
Time Weather Temperature Dewpoint Humidity Pressure Winds Precip Visibility


Weather for websites

WeatherForYou.com, LLC is not responsible for any damages or problems caused by this service. Current weather conditions are obtained from the closest station including government and personal stations which may have varying degrees of accuracy. Weather forecasts are derived from the NOAA NDFD. Like all things, this site belongs to Jesus Christ... He just trusts me to maintain it. If you have any questions or comments email webmaster@weatherforyou.com

Copyright © 2014, WeatherForYou.com LLC. All rights reserved.